SEEDS II (CO-66) (32791 NORAD) Tracking and Keplerian Element Data

This shows tracking and keplerian element data for the satellite.

Feedback or suggestion? Click here.




ElementValue
Catalog32791
NameSEEDS II (CO-66)
Epoch Orbit67752
Epoch Day297.90899319
Epoch Year2020
RAAN286.4545
Inclination97.5511
Eccentricity0.001428
Argument of Perigee39.7706
Mean Anonmoly320.4556
Mean Motion14.91139661
Decay Rate5.54E-06
L11 32791U 08021J 20297.90899319 .00000554 00000-0 61090-4 0 9995
L22 32791 97.5511 286.4545 0014280 39.7706 320.4556 14.91139661677526

Live tracking and technical data element details for SEEDS II (CO-66) (NORAD 32791). SEEDS II (CO-66) can be tracked NOW for your location showing map with azimuth and elevation plus other details from your city location.

Track the satellite on the map from your city or location and see movement details for azimuth, elevation, latitude, longitude, range, height, and movement on the map or in text.







IsCatalogInMostPopularTable: catalog: 32791, numindb: 255
Update: records affected: 1



GetName: 32791 SEEDS II (CO-66)

Hit Count: updated at: Sun, 25 Oct 2020 08:38:39 GMT